"Pseudo-MPEC" for P20OuRa

Created 2019 Jun 15 19:09:58 UT using Find_Orb

Click here for an explanation of pseudo-MPECs

 
 Astrometry: 
     P20OuRa  C2019 06 01ksjZwgOfs=I2ZsP/8CTVF.?Lh.m'y@KZh!G.td1TPk(Hu7aslqsTF52
     P20OuRa  C2019 06 016FCD9$xZ*XRLYSZ-=EAstrometrybG6jof[09'(2\rredacted;XF52
     P20OuRa  C2019 06 01Y=r7;,AM8G`k'Gb//=S$]i5vpq.,ige`9WUyx(kFB\'jD.S-%aePF52
     P20OuRa  C2019 06 018Ka;AL!4)W3\9$\\:=8KYE*t1F$e8%7mf,4la#Pr622oHclickH/F52
     P20OuRa  C2019 06 01e(k;Gu62v:RhsC5_OJ,j'\c=HufJwP5%Rhere@SVVf,KtD;0^D4jF52
     P20OuRa  C2019 06 014;w2(Ly,I)A([#4X3d^r8)gA1jeF_ECr'pK3sTTViVY#hlX,Q*E4F52
     P20OuRa  C2019 06 01r!U)ltOQ?M#FC(Yp6gL%x+]fR;s]Erq=s!?PKs#(?1Rq!?w[=]r*F52
     P20OuRa |C2019 06 0253Wr2OC*#+BW[mP9uo9`GdfQ^yIBh6y:H(7,*:7qMsG@IpYcqxY7807
     P20OuRa |C2019 06 02ndum3=5I)Lx@2)Z$/+Q],q`*#M\]dPG`w5Wf8NoL5QUIU?.`:1bp807
     P20OuRa |C2019 06 02;eCR.($HZ9%FQSp+!5UVT=0XMrNB8Lt:ZWr\71a7=oS3O94dHDse807
     P20OuRa ^C2019 06 03.52738321 50 32.237+03 46 04.37   ~63Jq 20.87GVNEOCP568
     P20OuRa ^C2019 06 03.52834221 50 32.314+03 46 05.54   ~63Jq 20.87GVNEOCP568
     P20OuRa ^C2019 06 03.52928921 50 32.391+03 46 06.70   ~63Jq 20.91GVNEOCP568
     P20OuRa  C2019 06 04.36557 21 51 40.74 +04 02 57.0    ~649b 20.6 GVNEOCPI52
     P20OuRa  C2019 06 04.36871 21 51 41.03 +04 03 01.1    ~649b       VNEOCPI52
     P20OuRa KC2019 06 05:)CAVLcHx82I5n:F/QcX_P-xLFy1V\/w8[;`3SWylGl0GVi,`P^%291
     P20OuRa KC2019 06 05*uUpR8%)*:DEMwSnMI`]KpLWWW6Y1ip='uGeik0C2vPZITAa%kg6291
     P20OuRa KC2019 06 05D,8X-$GWA(-hmforv4$m1jiaKm;FTt7A1:f=,D$0k\,MCN@?bx2s291
     P20OuRa  C2019 06 08.42802 21 57 02.47 +05 25 12.3    ~6927 20.4 GVNEOCPI52
     P20OuRa  C2019 06 08.43026 21 57 02.67 +05 25 15.2    ~6927 21.0 GVNEOCPI52
     P20OuRa  C2019 06 08.43250 21 57 02.83 +05 25 18.2    ~6927 20.9 GVNEOCPI52
     P20OuRa  C2019 06 09iV5:IP`#%wD6kd-x.2.SH:ZEi!d+yQYh-n\VDB3It19evGc^3Ll5F51
     P20OuRa  C2019 06 09@LZc'xo'ONI6B,F@(YDVE7Bu8_Y%e%n,R(IY':0FGB$G=,';cR_!F51
     P20OuRa  C2019 06 09Ex4Jd:spF!?%(8tm88:5p;RvG?SX#xW8#A,PkRQd14V+'owu^m66F51
     P20OuRa  C2019 06 11J37CijmC3_TEPyw'c.o@nviEKMm=qOT:xpeu]$u7IK6F-T/VtWS=F51
     P20OuRa  C2019 06 11XjIt-@#;5B9+a5CfdZ56K6wYyS-V`J2?:\m!q79UwTD@@/T0yYP8F51
     P20OuRa  C2019 06 11y]EUDIA==#0'Zqtjnexplanation)hhIwC3P3ofdnub=%[@iTKhrF51
     P20OuRa  C2019 06 11E2f(!/RRR?).-cWMMLI5D@nY`^gacV3.hSkCbCv:Y##BZQJ`9^@.F51
     P20OuRa KC2019 06 14rZF_u/;.q^bb'$_WsV6vYY00]K0v/*^'?*g:m\#?@?'HCAYwplV)H21
     P20OuRa KC2019 06 14WAf(+76!sU_:ISvLrqESsitR_KHR\+c#qk.4\DiUSNIW[F)S=)a6H21
     P20OuRa KC2019 06 14r5h1ak=CvFHqT6.S%=`Sg=53!B**]tVsbgZ-+W*1#R]1hkdG.%Tu691
     P20OuRa KC2019 06 14BCbw@l'#f]v)%060g@AjL$VnItoXyJSBmpsgb!k)8g2=xMeCI0I'691
     P20OuRa KC2019 06 14frQ`gc:k692/O0qX#9D@7FHVCK@GR,?]G`F;R=Qk)`KXKCj(\4HMH21
     P20OuRa KC2019 06 145J)XO$%(dx?19fk)W62raEC^iKtXMGmR+%'/_cs])_voeARw1oM=691
     P20OuRa  C2019 06 14.45009 22 04 26.95 +07 27 44.1    ~6EBM 20.3 GVNEOCPI52
     P20OuRa  C2019 06 14.45168 22 04 27.08 +07 27 46.2    ~6EBM 21.1 GVNEOCPI52
     P20OuRa  C2019 06 14.45701 22 04 27.50 +07 27 52.2    ~6EBM       VNEOCPI52

Station data:
(291) LPL/Spacewatch II  (N31.961669 W111.599905)  US/Arizona.  Observers J.
   V. Scotti, R. S. McMillan. 1.8-m f/2.7 reflector + CCD.
(568) Mauna Kea  (N19.826116 W155.472200)  US/Hawaii.
(691) Steward Observatory, Kitt Peak - Spacewatch  (N31.962174 W111.600327)
   US/Arizona.  Observer J. V. Scotti. 0.9-m f/3 reflector + CCD.
(807) Cerro Tololo Observatory, La Serena  (S30.169136 W70.805900)  Chile.
(F51) Pan-STARRS 1, Haleakala  (N20.707235 W156.255910)  US/Hawaii.
   Observers N. Primak, A. Schultz, S. Watters, J. Thiel, T. Goggia. Measurer
   PS1 Science Consortium. 1.8-m Ritchey-Chrétien + CCD.
(F52) Pan-STARRS 2, Haleakala  (N20.707384 W156.255910)  US/Hawaii. 1.8-m
   Ritchey-Chrétien + CCD.
(H21) Astronomical Research Observatory, Westfield  (N39.483057 W87.968270)
   US/Illinois. 0.76-m f/3.0 astrograph + CCD.
(I52) Steward Observatory, Mt. Lemmon Station  (N32.442547 W110.788920)
   US/Arizona.  Observers T. A. Pruyne, B. M. Africano, E. J. Christensen, G.
   A. Farneth, D. C. Fuls, A. R. Gibbs, A. D. Grauer, H. Groeller, J. A.
   Johnson, R. A. Kowalski, S. M. Larson, G. J. Leonard, R. L. Seaman, F. C.
   Shelly. 1.0-m reflector + CCD.

Orbital elements:  P20OuRa
   Perihelion 2019 Aug 6.828002 +/- 0.343 TT = 19:52:19 (JD 2458702.328002)
Epoch 2019 Jun 14.0 TT = JDT 2458648.5   Earth MOID: 0.7865   AutoNEOCP
M 346.79615006 +/- 0.16             (J2000 ecliptic)
n   0.24529704 +/- 0.0015           Peri.   85.91497 +/- 0.21
a   2.52740304 +/- 0.0103           Node   242.77657 +/- 0.06
e   0.3155572 +/- 0.00221           Incl.   14.02390 +/- 0.012
P   4.02                   H 17.8   G  0.15   U  8.4  
q 1.72986279 +/- 0.00149    Q 3.32494328 +/- 0.0195
From 37 observations 2019 June 1-14; mean residual 0".25
Residuals in arcseconds: 
190601 F52  .07+  .05-    190604 I52  .45-  .11-    190611 F51  .07+  .07-    
190601 F52  .02+  .20-    190604 I52  .14+  .19+    190611 F51  .05+  .13-    
190601 F52  .34+  .16-    190605 291  .22+  .28+    190614 H21  .08-  .16-    
190601 F52  .02+  .16-    190605 291  .03+  .54+    190614 H21  .05-  .18+    
190601 F52  .00   .22-    190605 291  .16-  .42+    190614 691  .59-  .68+    
190601 F52  .15+  .01-    190608 I52  .17-  .50-    190614 691  .22-  .33+    
190601 F52  .14-  .19+    190608 I52  .31+  .34-    190614 H21  .01-  .31+    
190602 807  .17-  .11+    190608 I52  .20+  .07-    190614 691  .21-  .06+    
190602 807  .05+  .12+    190609 F51  .02-  .04-    190614 I52  .15-  .29-    
190602 807  .04-  .22-    190609 F51  .06-  .03+    190614 I52  .18+  .14-    
190603 568  .02-  .05-    190609 F51  .05-  .01-    190614 I52  1.0+  .66-    
190603 568  .02-  .04-    190611 F51  .01-  .09-    
190603 568  .00   .03-    190611 F51  .04-  .02+    

Ephemerides (geocentric):
Date (UTC) HH   RA              Dec         delta   r     elong  mag " sig PA
---- -- -- --  -------------   -----------  ------ ------ -----  --- ---- ---
2019 06 15 19  22 06 00.303   +07 55 06.23  1.1876 1.7711 106.7 20.8 .168 140
2019 06 15 20  22 06 03.173   +07 55 57.12  1.1872 1.7710 106.8 20.8 .171 140
2019 06 15 21  22 06 06.040   +07 56 48.00  1.1869 1.7710 106.8 20.8 .174 140
2019 06 15 22  22 06 08.905   +07 57 38.88  1.1865 1.7709 106.8 20.8 .178 140
2019 06 15 23  22 06 11.768   +07 58 29.76  1.1862 1.7708 106.8 20.8 .181 139
2019 06 16 00  22 06 14.629   +07 59 20.64  1.1858 1.7708 106.8 20.8 .184 139
2019 06 16 01  22 06 17.488   +08 00 11.52  1.1854 1.7707 106.9 20.8 .188 139
2019 06 16 02  22 06 20.345   +08 01 02.39  1.1851 1.7706 106.9 20.8 .191 139
2019 06 16 03  22 06 23.200   +08 01 53.27  1.1847 1.7706 106.9 20.8 .194 139
2019 06 16 04  22 06 26.053   +08 02 44.14  1.1844 1.7705 106.9 20.8 .198 139
2019 06 16 05  22 06 28.904   +08 03 35.01  1.1840 1.7705 106.9 20.8 .201 139
2019 06 16 06  22 06 31.752   +08 04 25.89  1.1836 1.7704 107.0 20.8 .205 139
2019 06 16 07  22 06 34.599   +08 05 16.76  1.1833 1.7703 107.0 20.8 .208 139
2019 06 16 08  22 06 37.444   +08 06 07.63  1.1829 1.7703 107.0 20.8 .212 139
2019 06 16 09  22 06 40.286   +08 06 58.49  1.1826 1.7702 107.0 20.8 .216 139
2019 06 16 10  22 06 43.127   +08 07 49.36  1.1822 1.7701 107.0 20.8 .219 139
2019 06 16 11  22 06 45.965   +08 08 40.23  1.1819 1.7701 107.1 20.8 .223 139
2019 06 16 12  22 06 48.802   +08 09 31.09  1.1815 1.7700 107.1 20.8 .226 139
2019 06 16 13  22 06 51.636   +08 10 21.95  1.1811 1.7699 107.1 20.8 .230 139
2019 06 16 14  22 06 54.468   +08 11 12.81  1.1808 1.7699 107.1 20.8 .234 139
2019 06 16 15  22 06 57.298   +08 12 03.67  1.1804 1.7698 107.1 20.8 .237 139
2019 06 16 16  22 07 00.126   +08 12 54.53  1.1801 1.7698 107.2 20.8 .241 139
2019 06 16 17  22 07 02.952   +08 13 45.39  1.1797 1.7697 107.2 20.8 .245 139
2019 06 16 18  22 07 05.776   +08 14 36.24  1.1793 1.7696 107.2 20.8 .249 139
2019 06 16 19  22 07 08.598   +08 15 27.10  1.1790 1.7696 107.2 20.8 .252 139
2019 06 16 20  22 07 11.418   +08 16 17.95  1.1786 1.7695 107.2 20.8 .256 139
2019 06 16 21  22 07 14.235   +08 17 08.80  1.1783 1.7694 107.3 20.8 .260 139
2019 06 16 22  22 07 17.051   +08 17 59.65  1.1779 1.7694 107.3 20.8 .264 139
2019 06 16 23  22 07 19.864   +08 18 50.50  1.1776 1.7693 107.3 20.8 .268 139
2019 06 17 00  22 07 22.676   +08 19 41.35  1.1772 1.7692 107.3 20.8 .272 139
2019 06 17 01  22 07 25.485   +08 20 32.19  1.1768 1.7692 107.4 20.8 .275 139
2019 06 17 02  22 07 28.292   +08 21 23.03  1.1765 1.7691 107.4 20.8 .279 139
2019 06 17 03  22 07 31.097   +08 22 13.88  1.1761 1.7691 107.4 20.8 .283 139
2019 06 17 04  22 07 33.900   +08 23 04.72  1.1758 1.7690 107.4 20.8 .287 139
2019 06 17 05  22 07 36.701   +08 23 55.55  1.1754 1.7689 107.4 20.8 .291 139
2019 06 17 06  22 07 39.500   +08 24 46.39  1.1751 1.7689 107.5 20.8 .295 139
2019 06 17 07  22 07 42.297   +08 25 37.22  1.1747 1.7688 107.5 20.8 .299 139
2019 06 17 08  22 07 45.091   +08 26 28.06  1.1744 1.7687 107.5 20.8 .303 139
2019 06 17 09  22 07 47.884   +08 27 18.89  1.1740 1.7687 107.5 20.8 .307 139
2019 06 17 10  22 07 50.674   +08 28 09.72  1.1736 1.7686 107.5 20.8 .312 139
2019 06 17 11  22 07 53.463   +08 29 00.54  1.1733 1.7686 107.6 20.8 .316 139
2019 06 17 12  22 07 56.249   +08 29 51.37  1.1729 1.7685 107.6 20.8 .320 139
2019 06 17 13  22 07 59.033   +08 30 42.19  1.1726 1.7684 107.6 20.8 .324 139
2019 06 17 14  22 08 01.815   +08 31 33.02  1.1722 1.7684 107.6 20.8 .328 139
2019 06 17 15  22 08 04.595   +08 32 23.84  1.1719 1.7683 107.6 20.8 .332 139
2019 06 17 16  22 08 07.373   +08 33 14.65  1.1715 1.7682 107.7 20.8 .337 139
2019 06 17 17  22 08 10.148   +08 34 05.47  1.1712 1.7682 107.7 20.8 .341 139
2019 06 17 18  22 08 12.922   +08 34 56.28  1.1708 1.7681 107.7 20.8 .345 139